Simultaneous Nadir Overpasses (SNOs) Predictions

Prediction of SNOs between LANDSAT-8 and NOAA-19 Satellite Orbit:

Table of predicted SNOs for the next 14.0 days since TLE Epoch: 4/22/2023
Index Date (LANDSAT-8) Time (LANDSAT-8) Lat,Lon (LANDSAT-8) SZA (LANDSAT-8 ) Date (NOAA-19) Time (NOAA-19) Lat,Lon (NOAA-19) SZA (NOAA-19 ) Distance(km) Time Diff (sec)
1 04/22/2023 05:08:56 -80.94, -40.53 109.32 04/22/2023 05:07:53 -80.94, -40.48 109.34 0.81 63
2 04/22/2023 05:58:22 80.94, 127.19 70.69 04/22/2023 05:58:47 80.94, 127.37 70.71 3.05 25
3 04/24/2023 11:32:07 -80.95,-136.24 110.05 04/24/2023 11:31:26 -80.94,-136.07 110.05 2.87 41
4 04/24/2023 12:21:33 80.95, 31.46 69.96 04/24/2023 12:22:20 80.94, 31.62 69.99 2.95 47
5 04/26/2023 17:55:19 -80.93, 127.70 110.81 04/26/2023 17:55:00 -80.94, 127.87 110.79 3.36 19
6 04/26/2023 18:44:45 80.93, -64.62 69.19 04/26/2023 18:45:54 80.94, -64.56 69.23 1.64 69
7 04/29/2023 00:18:30 -80.93, 31.98 111.50 04/29/2023 00:18:33 -80.94, 32.10 111.48 2.28 3
8 05/01/2023 05:52:14 80.94, 128.58 67.83 05/01/2023 05:51:02 80.94, 128.66 67.81 1.40 72
9 05/01/2023 06:41:41 -80.94, -63.74 112.18 05/01/2023 06:42:06 -80.94, -63.76 112.17 0.32 25
10 05/03/2023 12:15:24 80.94, 32.84 67.17 05/03/2023 12:14:34 80.94, 32.65 67.13 3.25 50
11 05/03/2023 13:04:51 -80.94,-159.47 112.83 05/03/2023 13:05:37 -80.94,-159.33 112.80 2.54 46
12 05/05/2023 18:38:35 80.94, -62.92 66.53 05/05/2023 18:38:06 80.94, -63.05 66.51 2.36 29



Historial Predications of SNOs between LANDSAT-8 and NOAA-19
